This is the latest recevied weather packets stored in our database for station/object N4ASP-13. If no packets are shown the sender has not sent any weather packets the latest 10 day(s).
| Time | Temp. | Humidity | Pressure | Rain* | Wind** | Luminosity | Snow |
|---|---|---|---|---|---|---|---|
| 1777548242 | 12.22° C | 78% | 1010.9 hPa | 0 mm | - | 21 W/m² | - |
| 1777548183 | 12.22° C | 78% | 1010.8 hPa | 0 mm | - | 21 W/m² | - |
| 1777548122 | 12.22° C | 78% | 1010.8 hPa | 0 mm | - | 21 W/m² | - |
| 1777548055 | 12.22° C | 78% | 1010.8 hPa | 0 mm | - | 21 W/m² | - |
| 1777547996 | 12.22° C | 78% | 1010.8 hPa | 0 mm | - | 23 W/m² | - |
| 1777547936 | 12.22° C | 78% | 1010.8 hPa | 0 mm | - | 23 W/m² | - |
| 1777547876 | 12.22° C | 78% | 1010.9 hPa | 0 mm | - | 25 W/m² | - |
| 1777547815 | 12.22° C | 78% | 1011 hPa | 0 mm | - | 23 W/m² | - |
| 1777547756 | 12.22° C | 77% | 1010.9 hPa | 0 mm | - | 23 W/m² | - |
| 1777547694 | 12.22° C | 77% | 1010.8 hPa | 0 mm | - | 21 W/m² | - |
| 1777547634 | 12.22° C | 78% | 1010.8 hPa | 0 mm | - | 19 W/m² | - |
| 1777547572 | 12.22° C | 78% | 1010.7 hPa | 0 mm | - | 14 W/m² | - |
| 1777547512 | 12.22° C | 78% | 1010.6 hPa | 0 mm | - | 14 W/m² | - |
| 1777547452 | 12.22° C | 77% | 1010.4 hPa | 0 mm | - | 11 W/m² | - |
| 1777547391 | 12.22° C | 78% | 1010.1 hPa | 0 mm | - | 11 W/m² | - |
| 1777547332 | 12.22° C | 77% | 1010.2 hPa | 0 mm | - | 11 W/m² | - |
| 1777547269 | 12.22° C | 77% | 1010.6 hPa | 0 mm | - | 12 W/m² | - |
| 1777547209 | 12.22° C | 77% | 1010.6 hPa | 0 mm | - | 12 W/m² | - |
| 1777547147 | 12.22° C | 77% | 1010.2 hPa | 0 mm | - | 12 W/m² | - |
| 1777547089 | 12.22° C | 77% | 1010.2 hPa | 0 mm | - | 12 W/m² | - |
| 1777547028 | 12.22° C | 77% | 1010.2 hPa | 0 mm | - | 12 W/m² | - |
| 1777546967 | 12.22° C | 77% | 1010.2 hPa | 0 mm | - | 12 W/m² | - |
| 1777546907 | 12.22° C | 77% | 1010.1 hPa | 0 mm | - | 12 W/m² | - |
| 1777546847 | 12.22° C | 77% | 1010.1 hPa | 0 mm | - | 11 W/m² | - |
| 1777546787 | 12.22° C | 77% | 1010.1 hPa | 0 mm | - | 11 W/m² | - |
* Rain latest hour (hover to see other rain measurements)
** Current wind speed in m/s (hover to see current wind gust speed)